Content
SEND FEEDBACK

Daily
Averages
Monthly
Summary
United States of America

TEKAMAH, NEBRASKA


Home > North America > United States > Nebraska
Elevation: 1170 feet     Latitude: 41 46N     Longitude: 096 14W

WEATHER
 
SELECT A DAY
Number of Records: 198,441;   Date Range: 11/7/95 - 11/25/14
 
SHARE

PRINT THIS DATA

[ ← Previous Day ]
WEATHER ALMANAC - JULY 13, 2014
[ Next Day → ]
[ °C ]   °F
Weather ElementAverageHighLow
Temperature74.7 °F87.1 °F (3:54 pm)62.1 °F (5:54 am)
Dewpoint64.9 °F69.1 °F (10:54 am)60.1 °F (5:54 am)
Humidity74.2 %97 % (6:10 am)48 % (11:54 am)
Barometer29.98 in30.03 in (2:48 am)29.92 in (3:54 pm)
Wind Speed6.1 mph12.7 mph (3:14 am)
Weather ElementAverage
Visibility9.2 mi
Wind DirectionWSW (247 °)

Weather ElementTotal
Precipitation---
Cooling Degree Days9.6 (Base 65)
Growing Degree Days24.6 (Base 50)
Averaged from 23 records on July 13, 2014
WEATHER CONDITIONS BREAKOUT
WIND DIRECTION BREAKOUT
WEATHER BY HOUR - JULY 13, 2014
[ °C ]   °F
Local TimeTemperatureDewpointHumidityBarometerVisibilityWind DirectionWind SpeedGust SpeedPrecipitationEventsConditions
12:54 AM64.0 °F62.1 °F93 %29.98 in9.0 miSouth (170°)3.5 mphClear
1:54 AM64.0 °F62.1 °F93 %29.99 in10.0 miSW (220°)4.6 mphClear
2:54 AM63.0 °F61.0 °F93 %30.00 in9.0 miSouth (170°)6.9 mphClear
3:54 AM62.1 °F60.1 °F93 %30.01 in7.0 miSSW (200°)4.6 mphClear
4:54 AM63.0 °F61.0 °F93 %30.00 in7.0 miWest (260°)4.6 mphClear
5:54 AM63.0 °F62.1 °F97 %30.02 in7.0 miSW (230°)3.5 mphClear
6:54 AM64.0 °F63.0 °F96 %30.02 in4.0 miSSW (200°)4.6 mphClear
7:54 AM69.1 °F66.0 °F90 %30.02 in8.0 miSW (220°)3.5 mphClear
8:54 AM73.9 °F68.0 °F82 %30.03 in10.0 miSW (220°)4.6 mphClear
9:54 AM80.1 °F69.1 °F69 %30.02 in10.0 miWest (280°)8.1 mphClear
10:54 AM82.9 °F66.9 °F58 %30.01 in10.0 miWNW (290°)6.9 mphClear
11:54 AM84.9 °F66.0 °F53 %30.00 in10.0 miWNW (290°)10.4 mphClear
12:54 PM86.0 °F66.9 °F53 %29.99 in10.0 miNW (310°)6.9 mphClear
1:54 PM87.1 °F66.9 °F51 %29.97 in10.0 miNW (320°)9.2 mphClear
2:54 PM87.1 °F64.9 °F48 %29.96 in10.0 miNNW (330°)6.9 mphScattered Clouds
3:54 PM84.0 °F66.0 °F55 %29.97 in10.0 miNNW (340°)12.7 mphOvercast
4:54 PM84.9 °F68.0 °F57 %29.96 in10.0 miNorth (360°)10.4 mph0.00 inScattered Clouds
6:54 PM82.9 °F62.1 °F49 %29.93 in10.0 miNNW (340°)4.6 mphClear
7:54 PM84.0 °F66.0 °F55 %29.92 in10.0 miCalmClear
8:54 PM75.9 °F66.9 °F74 %29.93 in10.0 miSW (230°)4.6 mphClear
9:54 PM71.1 °F66.9 °F87 %29.94 in10.0 miSSW (210°)5.8 mphClear
10:54 PM70.0 °F64.9 °F84 %29.93 in10.0 miSW (220°)5.8 mphClear
11:54 PM70.0 °F64.9 °F84 %29.93 in10.0 miWest (270°)6.9 mphPartly Cloudy
Hourly data recorded from KTQE, located miles away from Tekamah, Nebraska







STORIES FROM OUR PARTNERS